UMBRA-10 (60547 NORAD) Tracking and Keplerian Element Data

This shows tracking and keplerian element data for the satellite.

Feedback or suggestion? Click here.




ElementValue
Catalog60547
NameUMBRA-10
Epoch Orbit850
Epoch Day286.77821768
Epoch Year2024
RAAN1.4253
Inclination97.7435
Eccentricity0.0003762
Argument of Perigee330.19
Mean Anonmoly29.9105
Mean Motion14.94994066
Decay Rate0.00021393
L11 60547U 24149CH 24286.77821768 .00021393 00000+0 19569-2 0 9999
L22 60547 97.7435 1.4253 0003762 330.1900 29.9105 14.94994066 8509



Live tracking and technical data element details for UMBRA-10 (NORAD 60547). UMBRA-10 can be tracked NOW for your location showing map with azimuth and elevation plus other details from your city location.







IsCatalogInMostPopularTable: catalog: 60547, numindb: 4
Update: records affected: 1



GetName: 60547 UMBRA-10

Hit Count: updated at: Wed, 04 Dec 2024 17:56:25 GMT